Date,TemperatureHighF,TemperatureAvgF,TemperatureLowF,DewpointHighF,DewpointAvgF,DewpointLowF,HumidityHigh,HumidityAvg,HumidityLow,PressureMaxIn,PressureMinIn,WindSpeedMaxMPH,WindSpeedAvgMPH,GustSpeedMaxMPH,PrecipitationSumIn
2013-1-1,54.7,47.4,38.3,54.4,45.5,17.6,99,93,78,29.97,29.46,17,6,19,0.09
2013-1-2,43.9,37.7,32.4,35.5,31.9,29.7,91,80,65,29.84,29.73,14,5,14,0.00
2013-1-3,46.8,39.7,30.9,35.6,32.2,28.9,94,76,62,29.94,29.81,12,4,12,0.00
2013-1-4,43.5,40.2,35.4,42.3,38.6,32.7,100,94,66,30.01,29.88,11,3,14,0.38
2013-1-5,57.2,44.9,32.2,47.4,41.6,-80.7,100,90,1,29.98,29.72,8,2,8,0.01
2013-1-6,60.6,44.4,33.1,39.7,35.8,32.8,99,76,40,29.89,29.77,14,4,14,0.01
2013-1-7,58.5,46.0,33.8,44.2,37.2,29.8,100,73,51,29.98,29.45,8,2,8,0.00
2013-1-8,53.2,50.0,46.6,52.8,49.2,43.9,100,97,79,29.57,29.38,16,3,16,0.64
2013-1-9,57.7,55.5,51.4,57.5,55.3,51.0,99,99,99,29.52,29.30,17,5,17,1.67
2013-1-10,64.2,52.9,46.2,51.9,48.7,46.0,100,87,61,29.55,29.47,18,3,18,0.00
2013-1-11,73.8,60.7,42.6,67.3,57.2,-80.7,100,89,63,29.98,28.99,15,4,15,0.01
2013-1-12,73.8,66.0,45.9,71.5,63.3,37.9,100,91,66,29.98,29.17,24,5,24,0.03
2013-1-13,53.6,43.5,36.5,38.3,32.1,27.0,83,65,49,29.98,29.40,20,10,20,0.00
2013-1-14,52.2,40.6,33.6,34.5,30.1,25.3,77,67,50,29.75,29.58,17,7,18,0.00
2013-1-15,41.2,36.1,32.2,36.1,33.4,-80.7,100,91,1,29.75,29.59,21,7,21,0.07
2013-1-16,54.3,38.7,27.0,29.1,24.8,18.6,85,62,30,29.83,29.67,17,4,17,0.00
2013-1-17,67.1,48.3,34.2,40.3,33.8,24.7,82,61,34,29.98,29.77,13,4,13,0.00
2013-1-18,65.5,50.0,36.3,40.5,35.7,32.5,86,62,34,30.01,29.82,11,2,11,0.01
2013-1-19,69.3,53.8,42.4,51.0,45.0,38.4,100,75,47,29.82,29.65,14,3,14,0.00
2013-1-20,74.8,57.3,43.3,56.1,48.1,43.1,100,75,39,29.75,29.58,10,2,12,0.00
2013-1-21,73.8,59.0,48.6,56.1,49.4,42.0,96,73,49,29.74,29.63,10,3,11,0.00
2013-1-22,72.5,57.0,42.6,54.4,47.1,38.5,87,71,53,29.81,29.69,11,2,11,0.00
2013-1-23,75.4,62.0,53.2,61.3,56.5,50.8,100,84,61,29.84,29.69,14,3,14,0.00
2013-1-24,80.6,68.2,59.2,66.0,62.3,58.7,100,84,58,29.75,29.60,14,4,14,0.01
2013-1-25,80.1,66.9,53.8,65.4,61.2,49.2,100,84,59,29.66,29.52,17,5,17,0.00
2013-1-26,65.8,56.4,51.3,60.6,54.7,49.3,100,94,83,29.69,29.57,8,2,8,0.01
2013-1-27,78.6,67.4,55.9,68.5,64.0,55.7,100,90,67,29.61,29.45,14,5,14,0.00
2013-1-28,77.4,71.6,68.7,69.7,68.4,67.1,100,90,74,29.55,29.37,20,6,20,0.00
2013-1-29,82.4,70.7,56.5,70.0,58.8,20.1,100,71,28,29.37,29.01,27,8,27,0.00
2013-1-30,61.2,51.4,40.5,33.5,22.3,10.5,59,36,18,29.72,29.30,21,6,21,0.00
2013-1-31,70.0,52.6,37.8,27.0,21.5,9.2,59,36,13,29.79,29.66,15,4,15,0.00
2013-2-1,72.0,57.6,43.0,43.8,37.5,27.0,70,50,29,29.86,29.67,16,4,16,0.00
2013-2-2,79.0,61.0,44.8,57.3,48.5,41.8,95,67,41,29.80,29.66,11,3,11,0.00
2013-2-3,74.3,60.7,44.2,49.1,38.3,16.9,77,50,16,29.85,29.53,11,3,11,0.00
2013-2-4,76.1,63.8,57.9,63.5,58.2,49.0,100,83,59,29.54,29.30,14,4,14,0.00
2013-2-5,81.0,66.0,52.5,59.8,53.0,46.5,100,69,33,29.49,29.37,11,3,11,0.00
2013-2-6,76.8,65.7,60.1,65.5,60.7,53.9,100,85,61,29.51,29.34,14,3,14,0.01
2013-2-7,84.9,68.2,59.5,63.9,55.8,38.1,100,71,30,29.59,29.35,20,6,20,0.00
2013-2-8,72.5,59.2,48.0,47.7,36.5,19.5,75,50,18,29.74,29.59,21,5,21,0.00
2013-2-9,68.5,58.7,53.2,68.2,56.8,41.7,100,94,60,29.61,29.28,18,5,18,0.04
2013-2-10,68.9,62.5,54.0,68.6,49.0,30.9,100,68,30,29.52,29.24,15,4,15,0.17
2013-2-11,60.3,54.6,51.1,52.4,48.5,41.6,100,81,62,29.60,29.47,14,4,14,0.09
2013-2-12,71.4,58.1,49.3,59.1,49.1,28.3,99,78,29,29.57,29.32,17,4,17,0.04
2013-2-13,65.3,50.3,38.8,41.0,37.1,33.8,89,65,35,29.66,29.53,24,5,24,0.00
2013-2-14,73.4,55.3,39.4,45.0,37.9,31.9,90,59,27,29.63,29.49,13,3,13,0.00
2013-2-15,64.6,51.7,42.1,44.2,37.9,26.1,83,61,45,29.88,29.57,20,6,20,0.00
2013-2-16,67.5,49.9,33.1,32.2,29.0,25.0,73,49,25,29.94,29.71,14,3,14,0.35
2013-2-17,72.0,57.2,39.0,53.8,38.4,29.8,78,54,29,29.70,29.47,20,6,20,0.00
2013-2-18,82.4,67.5,57.6,64.6,48.7,19.8,95,61,17,29.58,29.32,24,8,24,0.00
2013-2-19,71.1,58.1,44.2,37.8,32.4,18.4,69,43,17,29.79,29.58,16,4,21,0.00
2013-2-20,61.5,56.6,52.7,61.1,49.0,36.1,100,78,47,29.63,29.17,14,4,14,0.03
2013-2-21,79.2,66.7,52.9,68.1,43.2,8.8,99,57,11,29.37,29.08,24,6,24,0.03
2013-2-22,60.3,50.6,43.0,41.9,36.2,30.2,83,60,41,29.57,29.35,19,6,19,0.01
2013-2-23,73.8,54.0,39.9,41.5,34.2,27.3,70,52,23,29.56,29.38,16,4,16,0.00
2013-2-24,76.5,59.3,41.7,60.2,48.1,36.2,95,69,44,29.44,29.10,17,4,17,0.00
2013-2-25,65.5,56.3,45.7,60.9,39.0,17.5,100,59,21,29.33,29.05,41,14,41,0.01
2013-2-26,69.8,53.5,39.2,34.7,30.5,24.3,73,47,23,29.45,29.32,17,5,23,0.00
2013-2-27,66.0,54.6,46.0,36.3,28.5,19.5,58,40,22,29.73,29.36,24,7,24,0.00
2013-2-28,65.3,50.3,40.1,31.9,27.5,20.8,69,46,22,29.83,29.68,20,6,20,0.00
2013-3-1,73.4,53.0,35.1,33.0,25.9,11.5,74,44,14,29.79,29.62,17,4,17,0.00
2013-3-2,64.9,50.6,38.5,32.5,28.7,21.4,74,48,23,29.93,29.76,20,6,20,0.00
2013-3-3,76.8,58.6,41.4,45.8,32.6,25.9,64,43,20,29.77,29.43,20,6,20,0.00
2013-3-4,89.4,68.9,54.7,59.2,49.8,41.6,90,59,24,29.43,29.20,25,6,25,0.00
2013-3-5,69.1,58.0,45.3,59.2,23.7,-3.6,90,38,10,29.87,29.27,30,10,30,0.00
2013-3-6,68.0,52.4,38.8,24.6,18.5,7.6,51,31,13,29.96,29.72,12,4,12,0.00
2013-3-7,76.1,59.4,43.2,55.7,44.7,23.2,80,61,39,29.76,29.59,14,4,14,0.00
2013-3-8,66.4,61.0,57.4,65.5,59.0,53.6,100,93,78,29.66,29.51,15,4,15,0.16
2013-3-9,73.0,66.7,61.5,69.5,65.0,60.9,100,95,82,29.53,29.17,18,6,18,0.06
2013-3-10,68.2,59.6,48.2,65.9,45.7,34.6,99,65,37,29.63,29.21,21,8,21,1.12
2013-3-11,69.8,52.1,37.8,35.9,28.8,13.7,87,50,17,29.68,29.50,18,4,21,0.00
2013-3-12,81.0,60.5,43.3,46.2,34.0,25.3,63,43,19,29.75,29.57,14,4,14,0.00
2013-3-13,78.6,62.7,48.0,44.4,38.4,34.6,62,45,25,29.95,29.75,11,3,11,0.00
2013-3-14,79.9,64.9,51.4,57.1,49.6,42.7,94,63,35,29.89,29.72,15,5,15,0.00
2013-3-15,83.1,67.2,52.9,58.7,50.6,38.8,100,64,25,29.75,29.49,20,6,20,0.03
2013-3-16,86.4,70.1,58.8,64.3,59.3,52.0,100,74,35,29.52,29.24,21,8,21,0.00
2013-3-17,83.8,72.5,65.5,67.4,64.1,61.3,96,77,53,29.32,29.16,17,5,18,0.00
2013-3-18,91.2,74.6,63.3,68.4,57.6,41.5,100,65,22,29.46,29.22,16,6,16,0.00
2013-3-19,85.1,67.5,51.8,67.0,55.4,46.5,85,67,48,29.52,29.35,14,4,17,0.00
2013-3-20,75.0,62.1,52.7,55.5,48.6,36.7,100,68,34,29.76,29.50,21,5,21,0.24
2013-3-21,77.2,64.6,54.9,63.3,55.2,41.4,90,73,57,29.54,29.11,18,5,20,0.00
2013-3-22,85.8,70.8,55.2,69.5,63.9,49.1,100,81,56,29.30,29.14,14,5,21,0.01
2013-3-23,78.6,60.8,51.8,63.9,54.8,48.5,94,82,60,29.31,29.10,11,4,11,0.24
2013-3-24,61.3,52.9,42.1,59.6,34.5,23.8,100,55,27,29.67,29.20,25,9,27,0.00
2013-3-25,62.2,48.7,36.5,29.3,24.0,15.8,64,43,20,29.89,29.67,16,5,16,0.02
2013-3-26,66.9,50.8,34.0,27.2,23.5,13.2,71,40,18,29.99,29.79,9,2,9,0.01
2013-3-27,71.1,56.5,39.6,51.2,40.1,25.7,77,57,40,29.83,29.65,16,4,16,0.00
2013-3-28,74.5,63.9,54.5,62.1,57.7,51.0,94,81,65,29.72,29.62,16,4,16,0.00
2013-3-29,79.3,68.3,59.5,64.0,60.2,58.4,100,78,54,29.69,29.56,14,5,14,0.00
2013-3-30,84.6,72.4,64.8,67.5,64.0,60.8,97,78,51,29.62,29.39,14,4,14,0.00
2013-3-31,80.6,70.8,66.6,69.7,66.3,63.4,100,86,68,29.49,29.37,11,3,12,0.00
2013-4-1,86.4,72.2,59.0,69.0,63.8,58.3,100,78,51,29.57,29.40,13,3,13,0.00
2013-4-2,76.8,67.2,55.4,70.3,65.5,55.1,100,95,77,29.51,29.30,25,4,25,0.17
2013-4-3,55.4,52.2,49.1,54.6,51.9,48.8,99,99,99,29.65,29.34,18,7,24,0.68
2013-4-4,59.0,50.9,46.2,48.8,46.8,43.9,99,87,67,29.73,29.60,19,6,19,0.00
2013-4-5,71.6,55.4,40.3,52.2,47.0,40.0,100,77,47,29.78,29.57,9,2,9,0.00
2013-4-6,80.1,65.9,53.6,62.0,57.6,50.2,100,77,53,29.58,29.36,20,6,20,0.00
2013-4-7,82.4,69.5,63.1,68.5,64.4,61.7,100,85,60,29.44,29.26,13,5,14,0.00
2013-4-8,75.0,70.0,66.7,69.8,67.3,63.8,100,91,79,29.35,29.18,19,5,19,0.00
2013-4-9,84.0,74.3,69.6,72.4,70.1,68.2,100,88,67,29.23,29.11,16,6,16,0.00
2013-4-10,74.1,56.9,43.7,71.9,54.4,43.2,100,92,77,29.46,29.14,22,8,22,0.43
2013-4-11,68.0,53.5,42.3,47.4,43.8,40.5,100,73,45,29.50,29.32,18,4,22,0.04
2013-4-12,80.6,63.4,46.2,54.1,47.5,44.3,94,62,32,29.52,29.36,10,2,10,0.00
2013-4-13,78.4,68.1,55.0,61.8,55.4,50.6,92,66,45,29.48,29.29,11,3,13,0.00
2013-4-14,85.6,72.0,59.7,71.5,64.9,56.9,100,81,60,29.33,29.12,14,4,14,0.00
2013-4-15,87.1,78.9,70.2,72.6,70.3,68.2,100,77,60,29.33,29.20,13,5,16,0.00
2013-4-16,86.0,76.5,69.4,73.7,70.3,66.3,100,83,65,29.42,29.31,16,5,16,0.00
2013-4-17,83.1,76.2,72.7,75.0,72.9,71.2,100,90,70,29.39,29.19,17,5,17,0.00
2013-4-18,74.5,61.8,50.2,74.0,56.3,40.8,100,84,58,29.63,29.16,22,8,22,0.33
2013-4-19,70.0,56.2,43.0,40.7,32.6,15.6,77,48,18,29.81,29.62,18,6,19,0.00
2013-4-20,72.9,58.8,43.0,49.9,37.3,29.6,75,50,26,29.75,29.51,12,3,12,0.00
2013-4-21,77.9,64.0,50.5,60.7,54.5,47.4,93,74,51,29.67,29.52,12,3,12,0.00
2013-4-22,83.3,70.6,58.1,65.5,61.7,57.8,100,77,52,29.62,29.37,13,4,15,0.01
2013-4-23,78.8,65.7,50.5,70.1,60.6,43.9,96,84,62,29.64,29.36,17,6,17,0.00
2013-4-24,66.6,54.3,44.1,44.5,40.9,36.1,88,64,44,29.78,29.63,25,8,25,0.00
2013-4-25,63.5,57.3,54.5,49.5,45.9,43.5,71,66,60,29.86,29.75,11,4,11,0.00
2013-4-29,82.6,70.6,67.1,67.4,65.2,63.0,94,84,59,29.39,29.31,14,3,14,0.00
2013-4-30,83.3,73.2,64.9,69.9,67.0,64.5,100,83,60,29.37,29.24,8,2,10,0.00
2013-5-1,87.6,76.8,68.0,71.8,69.2,66.6,100,80,57,29.48,29.30,12,3,12,0.00
2013-5-2,75.7,57.1,46.9,67.9,50.5,37.8,91,79,65,29.85,29.44,30,10,30,0.00
2013-5-3,71.1,56.4,43.2,37.9,31.7,21.9,72,46,21,29.85,29.59,24,8,24,0.00
2013-5-4,84.2,66.5,50.2,42.3,33.7,22.1,54,36,15,29.60,29.39,19,4,19,0.00
2013-5-5,77.9,65.1,50.9,50.8,44.1,35.4,69,49,35,29.68,29.51,18,5,18,0.00
2013-5-6,76.8,64.8,53.1,54.1,50.0,45.9,80,61,43,29.68,29.52,8,1,8,0.00
2013-5-7,86.9,71.1,53.6,58.6,53.7,48.4,89,60,31,29.61,29.46,11,2,11,0.00
2013-5-8,85.1,73.8,65.1,68.3,65.0,58.2,100,77,54,29.55,29.40,18,4,18,0.00
2013-5-9,77.5,71.2,68.0,72.9,69.2,65.9,100,94,84,29.51,29.35,12,3,12,0.10
2013-5-10,89.6,71.8,62.6,71.8,66.4,62.1,100,86,44,29.56,29.31,22,4,22,1.74
2013-5-11,81.9,70.6,61.5,66.9,60.1,51.1,100,74,44,29.68,29.52,17,5,17,0.00
2013-5-12,82.8,70.4,59.7,61.8,53.9,44.7,80,59,36,29.79,29.64,12,3,12,0.00
2013-5-13,86.0,71.5,54.7,61.7,53.7,45.1,84,58,34,29.80,29.67,10,2,10,0.00
2013-5-14,84.9,74.6,62.8,70.3,65.0,60.4,95,75,52,29.75,29.52,15,4,15,0.00
2013-5-15,82.8,74.4,67.6,76.5,71.4,67.3,100,91,74,29.63,29.36,15,5,15,0.21
2013-5-16,90.7,78.2,70.2,76.6,73.1,69.9,100,86,58,29.42,29.25,17,5,17,0.10
2013-5-17,92.1,81.9,74.8,78.2,75.1,72.4,100,81,61,29.44,29.33,14,4,14,0.00
2013-5-18,93.7,81.5,72.5,76.2,72.2,66.5,100,77,52,29.45,29.34,19,5,19,0.00
2013-5-19,91.9,80.8,73.4,76.5,72.7,69.4,96,79,57,29.40,29.26,15,5,15,0.00
2013-5-20,92.1,81.4,73.4,75.8,73.6,71.0,97,80,56,29.39,29.24,16,5,16,0.00
2013-5-21,90.0,79.5,71.1,77.4,73.3,63.9,100,83,63,29.43,29.24,20,5,20,0.00
2013-5-22,93.0,78.2,61.9,75.8,66.4,60.5,100,72,42,29.48,29.35,8,2,8,0.00
2013-5-23,89.1,81.0,75.4,76.5,74.7,73.5,97,82,65,29.59,29.42,14,3,14,0.00
2013-5-24,83.7,74.5,67.3,77.4,72.9,67.0,100,95,79,29.66,29.55,23,3,23,1.80
2013-5-25,79.5,73.6,68.9,76.2,72.6,68.6,100,97,83,29.68,29.57,13,3,13,0.54
2013-5-26,84.6,77.1,71.2,77.5,73.7,70.9,100,90,74,29.64,29.51,17,4,17,0.88
2013-5-27,88.5,78.5,71.4,76.1,73.1,71.1,100,85,64,29.57,29.38,15,4,15,0.00
2013-5-28,89.6,80.0,73.2,75.5,73.4,72.0,100,82,60,29.46,29.31,20,6,20,0.00
2013-5-29,86.4,78.6,73.9,77.1,74.3,72.2,100,88,70,29.43,29.26,24,6,24,0.00
2013-5-30,89.6,82.7,75.0,78.1,75.9,74.4,100,81,66,29.40,29.30,15,5,15,0.00
2013-5-31,90.0,82.2,77.0,79.0,76.4,75.0,97,84,67,29.43,29.30,14,5,14,0.00
2013-6-1,94.3,84.2,76.6,79.2,76.3,75.1,97,79,59,29.45,29.34,16,4,16,0.00
2013-6-2,88.3,78.6,67.6,76.3,69.5,59.8,100,77,42,29.62,29.37,14,3,14,0.16
2013-6-3,92.1,79.4,65.8,70.8,66.1,61.7,94,68,40,29.54,29.38,10,2,10,0.00
2013-6-4,93.6,84.3,71.8,75.1,70.6,65.1,100,67,45,29.47,29.34,12,4,12,0.00
2013-6-5,94.5,82.7,71.4,73.8,71.2,67.6,100,72,46,29.46,29.29,15,4,15,0.00
2013-6-6,96.3,83.7,73.6,75.6,71.1,67.0,95,70,43,29.97,29.32,17,3,17,0.00
2013-6-7,88.7,78.2,69.8,68.6,63.5,56.6,92,65,39,30.04,29.91,13,3,13,0.00
2013-6-8,92.7,79.5,65.7,73.3,65.6,57.8,83,65,48,29.97,29.81,14,2,14,0.01
2013-6-9,86.4,79.7,68.7,76.6,74.6,68.1,100,85,69,30.02,29.87,17,2,17,0.64
2013-6-10,94.8,83.2,72.0,76.9,73.1,66.9,100,76,44,30.03,29.93,8,2,8,0.00
2013-6-11,92.7,82.8,76.3,77.1,75.0,69.7,100,80,55,30.08,29.98,12,3,12,0.00
2013-6-12,95.5,83.5,76.6,79.0,75.3,70.9,100,79,53,30.09,29.98,14,3,14,0.00
2013-6-13,96.3,84.1,77.5,78.9,74.9,69.4,100,76,50,30.11,29.97,18,4,18,0.00
2013-6-14,91.8,83.3,75.6,79.7,76.2,72.0,97,81,59,30.04,29.93,11,2,11,0.00
2013-6-15,88.2,83.3,78.6,79.1,77.0,74.8,97,82,69,30.04,29.93,9,2,9,0.00
2013-6-16,95.7,86.0,77.0,77.4,74.4,69.6,97,72,46,30.06,29.92,13,4,13,0.00
2013-6-17,97.3,88.1,77.9,77.7,73.6,67.7,93,66,43,30.05,29.88,14,4,14,0.00
2013-6-18,91.2,81.4,70.9,78.4,74.9,70.5,100,82,62,30.07,29.91,11,3,11,0.12
2013-6-19,96.3,85.9,76.8,76.9,73.9,68.8,100,71,47,30.02,29.93,13,3,13,0.00
2013-6-20,95.5,85.9,76.6,76.6,73.0,65.4,97,69,44,30.10,29.98,16,4,16,0.00
2013-6-21,96.8,86.6,77.4,77.0,71.9,63.1,97,67,38,30.12,29.99,19,5,19,0.00
2013-6-22,97.5,86.7,77.9,76.8,72.4,64.4,95,67,40,30.78,29.91,16,4,16,0.00
2013-6-23,95.5,85.4,77.7,76.6,71.2,61.2,94,67,39,30.03,29.92,15,4,15,0.00
2013-6-24,99.0,86.4,77.0,77.0,73.2,66.9,100,70,39,30.08,29.92,17,5,17,0.00
2013-6-25,99.3,87.4,78.8,77.0,72.0,64.3,94,66,36,30.05,29.89,16,5,16,0.00
2013-6-26,100.4,88.2,77.9,76.6,73.3,66.4,91,66,38,30.02,29.90,14,5,14,0.00
2013-6-27,101.7,88.8,77.5,76.8,69.1,54.1,91,60,26,30.08,29.93,12,4,12,0.00
2013-6-28,106.2,90.7,77.2,75.9,69.9,59.7,92,58,28,30.04,29.84,11,3,11,0.00
2013-6-29,108.1,93.2,78.4,74.1,65.4,55.7,72,46,22,29.91,29.78,14,3,14,0.00
2013-6-30,94.3,84.7,72.1,75.6,70.0,59.9,100,66,39,29.98,29.86,10,3,10,0.40
2013-7-1,92.1,81.7,73.0,64.2,59.7,54.8,67,50,33,30.06,29.94,23,4,23,0.00
2013-7-2,93.7,81.3,69.6,64.0,55.7,47.6,71,47,25,30.12,30.00,14,3,14,0.00
2013-7-3,96.3,82.4,68.2,64.2,53.3,44.8,71,42,22,30.08,29.94,14,2,14,0.00
2013-7-4,94.6,83.0,71.6,72.6,64.0,50.6,91,58,27,30.04,29.92,11,2,11,0.00
2013-7-5,100.0,86.7,72.5,73.6,65.8,56.0,91,57,27,30.03,29.87,11,3,11,0.00
2013-7-6,99.7,87.3,74.3,75.3,69.6,60.5,91,61,34,29.99,29.85,13,3,13,0.00
2013-7-7,101.5,86.1,76.3,77.3,74.2,67.4,94,72,37,30.03,29.90,24,3,24,0.00
2013-7-8,89.4,82.5,77.5,80.2,75.5,66.1,97,81,51,30.15,29.94,15,3,15,0.06
2013-7-9,99.5,87.5,76.6,77.8,74.4,67.8,100,70,40,30.04,29.88,12,4,12,0.00
2013-7-10,100.8,88.6,77.5,77.9,73.6,66.8,96,67,38,29.99,29.80,16,4,16,0.00
2013-7-11,102.2,89.0,77.7,78.0,70.9,59.9,91,61,31,29.91,29.75,12,3,12,0.00
2013-7-12,102.7,90.1,77.5,75.7,69.2,59.5,86,57,29,29.87,29.75,11,3,11,0.00
2013-7-13,105.4,91.9,77.7,73.4,66.7,57.5,79,50,25,29.88,29.72,10,2,10,0.00
2013-7-14,96.6,84.9,75.4,73.4,69.6,64.9,90,63,42,29.83,29.75,17,3,17,0.00
2013-7-15,75.9,72.9,70.9,75.6,72.4,70.4,100,98,90,29.93,29.80,9,2,9,1.31
2013-7-16,90.0,78.2,71.4,81.0,75.1,71.1,100,91,65,30.03,29.91,10,2,10,0.07
2013-7-17,90.7,76.7,72.7,81.4,74.8,72.4,100,95,64,30.08,29.94,21,2,21,1.26
2013-7-18,92.3,80.0,72.5,79.9,74.0,71.3,100,84,54,29.97,29.78,14,2,14,0.01
2013-7-19,95.0,82.7,72.9,77.0,73.4,68.1,100,77,47,29.87,29.70,9,3,9,0.00
2013-7-20,95.0,82.1,76.1,79.7,75.3,70.7,100,83,48,30.01,29.65,11,3,11,0.36
2013-7-21,93.9,82.0,75.0,81.1,77.5,74.5,100,88,60,30.03,29.94,19,3,19,0.16
2013-7-22,95.5,85.8,78.3,79.7,77.1,72.6,100,78,52,30.06,29.95,15,4,15,0.00
2013-7-23,95.9,86.1,78.1,78.4,75.0,68.3,96,73,47,30.08,29.92,17,5,17,0.00
2013-7-24,95.0,85.5,77.5,79.6,76.2,71.5,96,76,51,30.07,29.94,14,3,14,0.00
2013-7-25,97.3,87.0,77.4,77.9,74.1,66.4,100,70,44,30.09,30.01,12,3,12,0.00
2013-7-26,97.9,88.3,77.7,80.5,75.6,70.3,100,70,46,30.09,29.92,16,4,16,0.91
2013-7-27,88.5,81.4,76.1,79.0,75.3,71.9,100,83,67,29.94,29.84,14,4,14,0.18
2013-7-28,95.2,84.2,74.8,80.0,75.5,72.2,96,77,54,29.91,29.79,9,3,10,0.00
2013-7-29,97.5,86.7,78.6,78.0,73.5,65.1,94,70,39,29.99,29.88,19,5,19,0.00
2013-7-30,81.3,80.1,79.3,76.6,75.9,74.3,91,87,81,29.99,29.97,13,4,13,0.00
2013-8-11,100.0,90.0,82.4,75.6,73.1,68.6,79,61,40,29.91,29.81,13,4,13,0.01
2013-8-12,98.4,87.3,76.8,76.2,73.0,67.1,95,67,40,29.94,29.80,13,3,13,0.00
2013-8-13,101.8,89.5,78.4,76.9,71.5,62.2,94,61,32,29.91,29.74,11,4,11,0.00
2013-8-14,102.9,86.4,79.3,76.1,73.7,66.5,88,69,35,29.88,29.75,17,4,17,0.01
2013-8-15,95.5,83.9,77.4,77.9,75.8,74.3,95,79,54,29.90,29.78,9,2,9,0.00
2013-8-18,96.3,87.9,80.2,61.5,59.2,56.8,48,41,33,30.03,29.97,10,2,10,0.00
2013-8-19,97.2,84.7,73.0,69.9,64.7,57.3,83,55,37,30.09,29.93,14,2,14,0.00
2013-8-20,99.3,85.3,73.2,73.6,69.0,59.0,93,63,31,30.06,29.95,11,3,11,0.00
2013-8-21,98.8,85.2,75.0,77.7,73.0,68.3,94,71,41,30.11,29.98,17,3,17,0.00
2013-8-22,98.8,87.0,76.5,77.7,73.9,70.1,93,69,43,30.12,29.56,8,2,8,0.00
2013-8-23,99.3,88.2,76.8,77.0,72.6,66.4,95,65,39,30.05,29.61,9,2,9,0.00
2013-8-24,100.9,89.4,79.2,75.3,72.5,68.8,84,61,40,30.07,29.94,17,2,17,0.00
2013-8-25,97.2,86.8,77.2,75.8,73.2,69.3,89,67,47,30.11,30.02,11,3,11,0.00
2013-8-26,93.4,82.3,75.2,75.6,74.2,72.0,95,78,53,30.15,30.04,17,4,17,0.00
2013-8-27,86.2,80.2,75.2,79.6,73.9,64.2,100,83,53,30.14,29.89,8,2,8,0.05
2013-8-28,98.1,84.8,74.3,78.6,73.4,68.4,100,74,42,29.99,29.85,11,2,11,0.00
2013-8-29,102.4,87.9,76.8,74.2,70.3,63.7,87,61,35,29.96,29.81,8,2,8,0.00
2013-8-30,103.6,90.3,77.7,71.9,67.7,60.4,75,52,28,29.89,29.73,10,2,10,0.00
2013-8-31,103.1,89.8,77.9,74.6,71.2,64.7,84,59,34,29.81,29.67,11,3,11,0.00
2013-9-1,101.3,88.9,77.9,77.2,72.2,67.4,89,62,38,29.79,29.66,10,3,10,0.00
2013-9-2,103.5,88.7,78.4,77.2,72.7,64.1,93,64,34,29.86,29.68,12,3,12,0.00
2013-9-3,103.1,89.1,77.4,74.3,70.3,64.5,85,59,33,29.87,29.73,9,2,9,0.00
2013-9-4,101.8,88.4,77.7,77.9,73.2,69.7,100,65,40,29.92,29.78,12,3,12,0.06
2013-9-5,100.4,85.9,75.0,76.3,72.2,67.0,93,68,38,29.97,29.84,10,2,10,0.00
2013-9-6,98.8,86.8,75.7,77.0,73.2,66.2,95,69,40,29.96,29.80,11,2,11,0.00
2013-9-7,99.5,84.5,77.2,77.9,74.2,67.9,95,75,40,29.91,29.75,19,2,19,0.00
2013-9-8,97.3,82.8,74.5,77.5,74.5,70.4,100,79,46,29.86,29.73,11,2,11,0.00
2013-9-9,95.4,80.6,73.8,76.5,74.1,69.8,100,84,48,29.87,29.76,12,2,12,0.04
2013-9-10,93.4,79.5,74.1,78.0,75.4,72.2,100,89,56,29.93,29.84,11,2,11,0.05
2013-9-11,95.7,83.4,74.5,78.2,73.5,65.6,100,77,43,29.98,29.83,12,2,12,0.00
2013-9-12,97.2,83.4,73.6,77.3,72.8,66.6,100,75,41,29.94,29.77,11,1,11,0.01
2013-9-13,99.3,86.2,73.6,74.7,68.6,62.1,94,62,34,29.84,29.67,11,2,11,0.00
2013-9-14,98.2,85.7,74.3,77.3,69.7,62.3,93,63,39,29.81,29.69,11,2,11,0.01
2013-9-15,95.2,83.9,75.2,78.4,74.0,68.4,100,76,47,29.89,29.78,9,2,9,0.00
2013-9-16,95.4,83.5,77.2,78.2,75.4,72.5,100,79,51,29.93,29.81,11,2,11,0.05
2013-9-17,94.5,82.4,74.7,80.7,76.0,71.6,100,84,53,29.93,29.78,8,2,10,0.03
2013-9-18,96.6,84.3,74.8,78.9,74.3,68.8,100,76,46,29.89,29.73,13,2,13,0.00
2013-9-19,96.1,83.2,78.6,79.4,77.1,73.5,100,84,54,29.83,29.67,12,2,12,0.09
2013-9-20,79.5,75.7,71.4,79.0,75.4,70.4,100,99,99,29.74,29.62,19,4,19,3.08
2013-9-21,83.7,73.8,67.1,71.5,64.5,54.1,100,77,44,29.80,29.70,17,6,17,0.03
2013-9-22,85.5,73.3,60.4,60.3,56.6,52.3,86,59,36,29.78,29.64,15,3,15,0.00
2013-9-23,89.4,74.0,61.3,62.7,57.8,50.0,87,62,32,29.71,29.62,5,1,8,0.00
2013-9-24,95.4,80.0,67.6,70.2,63.5,58.8,84,62,35,29.79,29.69,11,2,11,0.00
2013-9-25,95.4,81.9,70.5,68.0,64.9,62.6,81,60,39,29.77,29.64,11,2,11,0.00
2013-9-26,91.2,80.8,69.4,77.0,67.7,60.2,90,67,43,29.77,29.68,14,3,14,0.00
2013-9-27,90.7,81.4,77.4,82.0,78.2,76.5,100,91,67,29.79,29.69,11,3,11,0.10
2013-9-28,90.1,80.9,74.1,84.3,78.5,73.8,100,93,71,29.86,29.73,16,3,17,0.83
2013-9-29,74.3,69.8,66.0,73.8,69.2,65.4,100,98,88,29.93,29.78,11,3,11,1.06
2013-9-30,86.7,72.9,62.8,72.1,64.7,59.2,99,79,44,29.82,29.67,6,1,7,0.00
2013-10-1,88.2,78.0,67.6,77.5,72.5,62.0,100,85,61,29.80,29.69,11,2,11,0.00
2013-10-2,90.3,81.0,75.0,79.6,76.5,74.2,100,88,64,29.83,29.71,10,3,10,0.00
2013-10-3,90.0,81.8,77.2,78.9,76.0,72.6,100,84,62,29.81,29.69,12,3,12,0.00
2013-10-4,89.6,80.7,74.3,77.5,75.2,73.6,100,85,63,29.79,29.69,14,4,14,0.00
2013-10-5,87.8,75.9,62.8,76.7,68.7,46.8,100,80,56,29.93,29.74,17,5,17,0.00
2013-10-6,81.1,65.9,55.0,60.3,50.6,37.4,100,65,27,30.00,29.90,15,4,15,0.27
2013-10-7,84.4,67.3,54.0,57.1,49.7,42.1,87,59,29,30.04,29.89,8,2,8,0.00
2013-10-8,84.0,69.0,56.5,58.0,53.9,51.0,87,62,37,29.96,29.83,11,1,11,0.00
2013-10-9,127.6,70.0,61.5,67.7,60.0,54.1,82,72,52,29.94,29.83,39,2,39,0.00
2013-10-10,85.6,74.1,63.5,72.3,67.9,63.2,100,83,60,29.96,29.80,11,2,11,0.00
2013-10-11,86.4,59.5,0.0,76.3,73.7,65.7,99,65,62,30.06,29.57,12,2,12,0.03
2013-10-12,91.4,80.3,72.3,78.4,74.9,70.5,100,85,61,30.09,29.95,12,3,12,0.03
2013-10-13,73.9,70.2,66.4,73.6,69.9,66.1,100,99,95,30.20,30.07,14,2,14,4.13
2013-10-14,75.7,72.6,71.1,75.4,72.3,70.8,99,99,99,30.14,29.97,11,2,11,0.84
2013-10-15,81.0,72.7,58.8,75.4,70.5,57.0,100,93,78,30.06,29.92,16,4,16,0.01
2013-10-16,59.7,57.1,53.4,59.4,56.7,53.1,100,99,93,30.12,30.01,14,5,14,0.87
2013-10-17,72.0,60.2,51.8,57.1,52.4,49.3,100,78,50,30.18,30.02,11,3,11,0.00
2013-10-18,71.4,63.8,55.2,65.7,60.3,53.7,96,89,77,30.06,29.92,9,1,9,0.00
2013-10-19,66.0,56.4,47.1,63.3,46.6,39.4,94,73,42,30.25,30.04,20,6,20,0.00
2013-10-20,72.0,57.8,44.4,51.3,47.2,43.1,97,72,41,30.14,29.95,11,2,11,0.00
2013-10-21,78.4,66.5,58.8,69.4,62.6,51.7,100,88,73,30.11,29.94,16,2,16,0.16
2013-10-22,74.7,61.9,52.0,58.4,48.5,39.4,90,67,33,30.21,30.10,14,4,14,0.00
2013-10-23,79.7,63.7,51.3,53.8,47.5,38.9,87,61,29,30.22,30.12,10,2,10,0.00
2013-10-24,80.1,66.0,54.9,53.6,49.7,46.3,78,59,35,30.28,30.16,9,2,9,0.00
2013-10-25,78.1,66.1,55.8,64.3,58.5,52.9,95,78,61,30.37,30.24,10,2,10,0.00
2013-10-26,78.6,68.7,62.1,67.1,63.6,60.4,95,85,65,30.27,30.10,13,3,13,0.00
2013-10-27,73.0,67.2,63.9,68.2,65.4,63.4,100,95,80,30.17,30.05,9,2,9,0.43
2013-10-28,79.9,70.7,64.8,71.9,67.9,64.5,100,92,72,30.14,30.02,12,3,12,0.01
2013-10-29,81.3,74.3,69.8,73.7,70.6,68.6,100,89,71,30.12,30.02,13,4,13,0.00
2013-10-30,81.5,75.4,72.0,77.4,74.1,70.7,100,96,84,30.09,29.83,11,3,11,4.67
2013-10-31,76.6,68.3,55.4,72.0,59.1,39.3,100,78,31,29.94,29.80,19,3,19,2.88
2013-11-1,80.6,64.4,51.8,61.8,48.7,34.8,92,63,25,30.12,29.86,16,4,16,0.00
2013-11-2,72.3,61.7,53.4,47.5,41.2,28.6,66,51,24,30.34,30.11,15,5,15,0.00
2013-11-3,68.2,57.1,45.9,55.1,44.4,40.5,87,66,42,30.27,30.06,10,2,10,0.00
2013-11-4,65.7,62.2,59.0,64.8,60.9,55.1,100,96,87,30.12,30.01,8,2,8,0.06
2013-11-5,77.7,70.2,64.9,71.3,68.5,64.7,100,95,76,30.06,29.94,11,3,11,0.00
2013-11-6,71.1,60.0,50.9,70.8,56.7,43.7,100,89,71,30.37,30.03,17,5,17,0.44
2013-11-7,63.3,52.9,41.0,44.9,41.3,35.6,94,68,42,30.50,30.36,16,5,16,0.00
2013-11-8,64.6,56.5,50.2,47.2,44.4,38.9,83,66,44,30.43,30.20,9,1,9,0.00
2013-11-9,69.1,60.7,54.5,59.9,54.5,45.9,91,80,69,30.23,30.14,8,2,8,0.00
2013-11-10,70.7,63.4,59.2,60.4,58.1,53.4,96,84,67,30.35,30.21,5,1,5,0.00
2013-11-11,74.5,62.5,51.8,58.8,54.9,50.0,96,78,55,30.32,30.19,6,1,6,0.00
2013-11-12,59.0,53.3,41.9,57.0,45.5,26.1,97,77,49,30.66,30.28,22,7,22,0.00
2013-11-13,54.3,42.4,33.6,30.6,27.9,23.7,77,59,36,30.69,30.42,13,4,13,0.00
2013-11-14,60.6,48.0,33.1,52.9,38.0,29.0,88,71,42,30.43,30.07,12,2,12,0.00
2013-11-15,75.4,62.8,50.0,62.0,57.3,49.7,100,84,61,30.09,29.90,11,2,11,0.00
2013-11-16,77.9,70.8,62.1,72.7,67.8,61.1,100,91,75,29.96,29.78,17,4,17,0.00
2013-11-17,87.1,75.7,67.6,74.4,68.7,59.9,100,82,44,30.00,29.82,13,3,13,0.00
2013-11-18,77.4,68.0,60.1,67.4,59.2,51.4,100,75,58,30.15,29.99,11,3,11,0.00
2013-11-19,71.6,62.2,55.2,53.3,48.4,45.1,85,63,43,30.20,30.04,9,2,9,0.00
2013-11-20,70.9,62.8,56.7,65.4,57.4,49.6,100,83,70,30.07,29.93,9,2,9,0.01
2013-11-21,78.3,72.4,65.8,74.5,71.0,65.4,100,96,83,30.10,29.96,11,2,11,0.50
2013-11-22,72.0,41.1,33.8,71.7,40.8,33.6,100,99,93,30.42,30.09,24,9,24,2.27
2013-11-23,42.6,37.3,34.2,41.9,37.0,33.9,100,99,97,30.50,30.38,19,9,19,0.24
2013-11-24,42.4,37.1,33.3,40.9,35.1,31.0,100,93,76,30.52,30.33,17,7,17,0.21
2013-11-25,39.6,35.9,33.1,39.1,35.6,32.8,99,99,99,30.36,30.11,20,4,20,1.24
2013-11-26,50.7,41.5,36.0,40.2,35.7,30.5,100,82,58,30.39,30.12,24,8,24,0.00
2013-11-27,50.5,39.7,30.7,31.0,27.1,21.8,85,64,36,30.51,30.36,17,4,17,0.00
2013-11-28,55.4,41.2,31.1,32.6,30.3,26.0,87,69,35,30.48,30.36,8,1,8,0.00
2013-11-29,61.7,47.7,33.4,49.9,42.3,31.0,100,83,62,30.53,30.38,8,1,8,0.00
2013-11-30,64.9,56.7,50.4,57.8,52.0,45.9,100,85,73,30.40,30.22,9,2,9,0.00
2013-12-1,71.4,62.5,52.0,62.4,58.6,51.7,100,88,70,30.24,29.96,15,4,15,0.00
2013-12-2,80.2,65.5,56.3,59.8,54.6,43.8,100,73,32,29.97,29.70,14,3,14,0.00
2013-12-3,81.3,64.2,49.6,55.7,49.1,43.2,95,64,31,29.76,29.63,12,2,12,0.00
2013-12-4,72.7,64.0,55.8,68.2,60.7,48.1,100,90,57,29.84,29.71,11,2,11,0.00
2013-12-5,66.2,44.3,32.0,65.9,39.8,26.2,100,85,69,30.14,29.82,21,8,21,0.01
2013-12-6,35.4,31.5,27.3,33.8,29.3,23.3,100,92,82,30.46,30.07,22,9,22,0.04
2013-12-7,30.0,26.6,24.4,25.8,23.1,20.9,100,87,79,30.49,30.30,21,6,21,0.00
2013-12-8,46.9,34.8,26.4,39.7,32.5,25.7,100,92,75,30.32,30.05,5,1,5,0.00
2013-12-9,38.1,35.9,32.5,37.9,35.6,31.5,100,99,96,30.42,30.07,17,5,17,0.10
2013-12-10,46.0,34.1,25.9,31.8,26.1,21.7,97,74,48,30.53,30.36,14,4,14,0.00
2013-12-11,57.7,41.7,28.2,35.3,31.1,25.3,92,70,39,30.58,30.34,12,2,12,0.00
2013-12-12,52.7,41.5,31.6,37.4,33.1,28.1,88,73,52,30.62,30.34,10,2,10,0.00
2013-12-13,49.8,45.2,42.4,49.6,42.6,36.0,100,91,75,30.34,29.93,8,2,8,0.25
2013-12-14,49.8,44.8,36.9,49.4,41.5,32.8,99,89,74,30.37,29.90,22,6,22,0.00
2013-12-15,59.7,44.1,32.9,38.4,33.7,29.2,90,69,40,30.43,30.30,15,2,15,0.00
2013-12-16,66.4,49.5,35.6,39.8,34.7,31.3,84,61,34,30.33,30.22,13,2,13,0.00
2013-12-17,70.5,53.0,40.6,44.5,39.1,32.3,86,63,33,30.36,30.26,9,2,9,0.00
2013-12-18,68.2,56.1,45.0,56.7,49.3,39.9,100,79,59,30.32,30.09,14,3,14,0.00
2013-12-19,74.5,64.0,54.5,65.4,60.2,52.5,100,89,66,30.10,29.83,23,5,23,0.00
2013-12-20,72.1,68.1,64.6,69.9,66.9,64.3,100,96,85,29.90,29.67,17,4,17,0.00
2013-12-21,71.2,51.8,43.2,69.7,50.9,42.9,100,97,88,29.88,29.62,17,3,17,0.52
2013-12-22,53.6,45.1,36.5,46.5,39.3,30.6,100,82,54,30.40,29.87,18,6,18,0.00
2013-12-23,55.8,40.5,29.8,33.5,30.4,27.3,90,70,39,30.56,30.40,11,3,11,0.00
2013-12-24,57.6,43.1,30.0,40.0,31.4,23.6,100,69,31,30.56,30.30,11,2,11,0.00
2013-12-25,57.7,47.6,38.3,48.5,43.5,38.0,100,87,71,30.43,30.27,13,2,13,0.00
2013-12-26,55.4,45.9,36.1,42.7,39.0,33.8,93,78,61,30.48,30.35,11,3,11,0.00
2013-12-27,58.8,48.5,42.6,44.0,42.0,39.7,93,79,57,30.48,30.34,10,1,10,0.00
2013-12-28,60.4,49.2,38.3,46.6,41.7,37.9,100,79,49,30.35,30.05,8,2,8,0.00
2013-12-29,62.2,47.5,33.3,53.2,43.9,30.5,100,88,71,30.32,30.00,21,5,21,0.00
2013-12-30,42.8,36.7,32.7,32.1,29.0,24.5,91,74,58,30.43,30.26,15,4,15,0.00
2013-12-31,53.6,41.7,34.3,33.4,31.0,28.0,86,68,41,30.49,30.27,5,1,5,0.00
2014-1-1,66.9,50.2,37.0,55.1,43.7,31.7,100,79,63,30.27,30.03,17,4,17,0.00
2014-1-2,52.2,41.4,32.4,50.6,28.5,22.6,100,62,34,30.48,30.14,25,7,25,0.00